Home   Weather   Kriens   Past weeks

Flag for Switzerland Past Weather in Kriens, Lucerne, Switzerland — Yesterday and Last 2 Weeks

Now
24 °F

Cold.


Feels Like: 24 °F
Forecast: 24 / 39 °F
Wind: 1 mph from Southwest

Location: Giswil

Current Time: Dec 2, 2016 at 11:31:23 pm

Latest Report: Dec 2, 2016 at 10:00 pm


Visibility: N/A

Pressure: 30.23 "Hg

Humidity: 100%

Dew Point: 23 °F

Location of KriensLocation

Past Weather in Kriens — Graph

°F

Kriens Temperature Yesterday

Maximum temperature yesterday: 43 °F (at 3:00 pm)
Minimum temperature yesterday: 22 °F (at 7:00 am)
Average temperature yesterday: 29 °F

High & Low Weather Summary for the Past Weeks

 TemperatureHumidityPressure
High71 °F (Nov 21, 2:00 pm)100% (Nov 18, 12:00 am)30.67 "Hg (Nov 18, 12:00 am)
Low22 °F (Dec 1, 7:00 am)24% (Nov 21, 12:00 pm)29.47 "Hg (Nov 21, 10:00 am)
Average41 °F88%30.06 "Hg
* Reported Nov 17 10:00 pm — Dec 2 10:00 pm, Kriens, Weather by CustomWeather, © 2016

Note: Actual official high and low records may vary slightly from our data, if they occured in-between our weather recording intervals... More about our weather records

Advertising

Kriens Weather History for the Previous 24 Hours

Scroll right to see more
 ConditionsComfort  
Time TempWeatherWind HumidityBarometerVisibility
10:00 pm
Fri, Dec 2
24 °FCold.1 mph100%30.23 "HgN/A
9:00 pm25 °FChilly.1 mph99%30.23 "HgN/A
8:00 pm25 °FChilly.2 mph99%30.24 "HgN/A
7:00 pm28 °FChilly.1 mph99%30.22 "HgN/A
6:00 pm28 °FChilly.2 mph100%30.23 "HgN/A
5:00 pm29 °FChilly.2 mph98%30.22 "HgN/A
4:00 pm33 °FChilly.2 mph86%30.20 "HgN/A
3:00 pm40 °FChilly.1 mph65%30.18 "HgN/A
2:00 pm39 °FChilly.2 mph71%30.20 "HgN/A
1:00 pm38 °FChilly.1 mph75%30.23 "HgN/A
12:00 pm35 °FChilly.3 mph91%30.26 "HgN/A
11:00 am33 °FChilly.1 mph95%30.28 "HgN/A
10:00 am28 °FChilly.1 mph99%30.32 "HgN/A
9:00 am26 °FChilly.1 mph99%30.33 "HgN/A
8:00 am24 °FCold.1 mph100%30.33 "HgN/A
7:00 am25 °FChilly.2 mph99%30.33 "HgN/A
6:00 am27 °FChilly.3 mph99%30.31 "HgN/A
5:00 am23 °FCold.2 mph99%30.30 "HgN/A
4:00 am25 °FChilly.1 mph100%30.31 "HgN/A
3:00 am26 °FChilly.3 mph99%30.33 "HgN/A
1:00 am26 °FChilly.No wind99%30.32 "HgN/A
12:00 am25 °FChilly.1 mph99%30.35 "HgN/A
11:00 pm
Thu, Dec 1
26 °FChilly.2 mph98%30.36 "HgN/A
Weather by CustomWeather, © 2016

See weather overviewHow to use our weather pages